IRNSS-1I (43286 NORAD) Tracking and Keplerian Element Data

This shows tracking and keplerian element data for the satellite.

Feedback or suggestion? Click here.




ElementValue
Catalog43286
NameIRNSS-1I
Epoch Orbit418
Epoch Day143.98235101
Epoch Year2019
RAAN116.0558
Inclination29.2131
Eccentricity0.0019345
Argument of Perigee191.7994
Mean Anonmoly342.2126
Mean Motion1.00277943
Decay Rate1.13E-06
L11 43286U 18035A 19143.98235101 .00000113 00000-0 00000+0 0 9991
L22 43286 29.2131 116.0558 0019345 191.7994 342.2126 1.00277943 4187

Live tracking and technical data element details for IRNSS-1I (NORAD 43286). IRNSS-1I can be tracked NOW for your location showing map with azimuth and elevation plus other details from your city location.

Track the satellite on the map from your city or location and see movement details for azimuth, elevation, latitude, longitude, range, height, and movement on the map or in text.







IsCatalogInMostPopularTable: catalog: 43286, numindb: 446
Update: records affected: 1



GetName: 43286 IRNSS-1I

Hit Count: updated at: Fri, 24 May 2019 21:29:25 GMT